Time,TemperatureF,DewpointF,PressureIn,WindDirection,WindDirectionDegrees,WindSpeedMPH,WindSpeedGustMPH,Humidity,HourlyPrecipIn,Conditions,Clouds,dailyrainin,SoftwareType,DateUTC
2013-01-18 00:00:00,28.2,38.7,30.07,SE,137,0.0,2.0,58,0.00,,,0.00,meteohub,2013-01-18 05:00:00,
2013-01-18 00:01:00,28.2,38.5,30.07,SE,137,0.0,2.0,58,0.00,,,0.00,meteohub,2013-01-18 05:01:00,
2013-01-18 00:03:00,28.2,38.5,30.08,SE,137,0.0,2.0,58,0.00,,,0.00,meteohub,2013-01-18 05:03:00,
2013-01-18 00:08:00,28.2,38.7,30.09,SE,137,0.0,2.0,59,0.00,,,0.00,meteohub,2013-01-18 05:08:00,
2013-01-18 00:13:00,28.2,38.7,30.08,SE,137,0.0,2.0,60,0.00,,,0.00,meteohub,2013-01-18 05:13:00,
2013-01-18 00:18:00,28.2,38.5,30.09,SE,137,0.0,0.0,60,0.00,,,0.00,meteohub,2013-01-18 05:18:00,
2013-01-18 00:23:00,28.0,38.5,30.09,SE,137,0.0,0.0,61,0.00,,,0.00,meteohub,2013-01-18 05:23:00,
2013-01-18 00:28:00,28.0,38.5,30.08,SE,137,0.0,0.0,60,0.00,,,0.00,meteohub,2013-01-18 05:28:00,
2013-01-18 00:33:00,28.0,38.3,30.08,SE,132,0.0,1.0,59,0.00,,,0.00,meteohub,2013-01-18 05:33:00,
2013-01-18 00:38:00,28.0,38.3,30.09,SE,131,0.0,3.0,57,0.00,,,0.00,meteohub,2013-01-18 05:38:00,
2013-01-18 00:43:00,28.0,38.1,30.10,SE,131,0.0,3.0,57,0.00,,,0.00,meteohub,2013-01-18 05:43:00,
2013-01-18 00:48:00,28.0,38.1,30.10,SE,131,0.0,3.0,58,0.00,,,0.00,meteohub,2013-01-18 05:48:00,
2013-01-18 00:53:00,28.0,37.9,30.07,SE,131,0.0,1.0,58,0.00,,,0.00,meteohub,2013-01-18 05:53:00,
2013-01-18 00:58:00,27.9,37.9,30.06,SE,131,0.0,0.0,59,0.00,,,0.00,meteohub,2013-01-18 05:58:00,
2013-01-18 01:03:00,27.9,38.1,30.07,SE,131,0.0,0.0,58,0.00,,,0.00,meteohub,2013-01-18 06:03:00,
2013-01-18 01:08:00,27.7,37.9,30.08,SE,131,0.0,0.0,57,0.00,,,0.00,meteohub,2013-01-18 06:08:00,
2013-01-18 01:13:00,27.7,37.9,30.07,SE,130,0.0,1.0,57,0.00,,,0.00,meteohub,2013-01-18 06:13:00,
2013-01-18 01:18:00,27.7,37.0,30.08,SE,131,0.0,1.0,57,0.00,,,0.00,meteohub,2013-01-18 06:18:00,
2013-01-18 01:23:00,27.5,36.9,30.07,SE,131,0.0,1.0,57,0.00,,,0.00,meteohub,2013-01-18 06:23:00,
2013-01-18 01:28:00,27.3,36.9,30.07,SE,128,1.0,1.0,54,0.00,,,0.00,meteohub,2013-01-18 06:28:00,
2013-01-18 01:34:00,27.3,36.7,30.06,East,91,1.0,1.0,54,0.00,,,0.00,meteohub,2013-01-18 06:34:00,
2013-01-18 01:39:00,27.3,36.7,30.06,East,101,0.0,4.0,53,0.00,,,0.00,meteohub,2013-01-18 06:39:00,
2013-01-18 01:40:00,27.1,36.7,30.06,SE,134,0.0,4.0,53,0.00,,,0.00,meteohub,2013-01-18 06:40:00,
2013-01-18 01:47:00,27.1,36.5,30.09,NNW,345,2.0,3.0,52,0.00,,,0.00,meteohub,2013-01-18 06:47:00,
2013-01-18 01:55:00,27.0,36.7,30.10,ENE,61,0.0,5.0,51,0.00,,,0.00,meteohub,2013-01-18 06:55:00,
2013-01-18 02:00:00,27.0,36.5,30.10,ENE,60,0.0,5.0,51,0.00,,,0.00,meteohub,2013-01-18 07:00:00,
2013-01-18 02:05:00,27.0,36.5,30.10,ENE,60,0.0,1.0,53,0.00,,,0.00,meteohub,2013-01-18 07:05:00,
2013-01-18 02:10:00,27.0,36.5,30.10,SSE,150,2.0,2.0,53,0.00,,,0.00,meteohub,2013-01-18 07:10:00,
2013-01-18 02:15:00,26.8,36.5,30.09,SSE,151,0.0,3.0,52,0.00,,,0.00,meteohub,2013-01-18 07:15:00,
2013-01-18 02:20:00,26.8,36.5,30.09,South,175,0.0,5.0,51,0.00,,,0.00,meteohub,2013-01-18 07:20:00,
2013-01-18 02:25:00,26.8,36.3,30.10,ENE,69,0.0,5.0,50,0.00,,,0.00,meteohub,2013-01-18 07:25:00,
2013-01-18 02:30:00,26.6,36.3,30.11,ENE,69,0.0,5.0,51,0.00,,,0.00,meteohub,2013-01-18 07:30:00,
2013-01-18 02:35:00,26.4,36.5,30.11,ENE,69,0.0,2.0,52,0.00,,,0.00,meteohub,2013-01-18 07:35:00,
2013-01-18 02:40:00,26.4,36.5,30.12,East,89,0.0,2.0,52,0.00,,,0.00,meteohub,2013-01-18 07:40:00,
2013-01-18 02:45:00,26.2,36.5,30.12,East,88,0.0,2.0,52,0.00,,,0.00,meteohub,2013-01-18 07:45:00,
2013-01-18 02:50:00,26.2,36.5,30.11,SE,130,0.0,2.0,50,0.00,,,0.00,meteohub,2013-01-18 07:50:00,
2013-01-18 02:55:00,26.2,36.5,30.10,SE,130,2.0,5.0,50,0.00,,,0.00,meteohub,2013-01-18 07:55:00,
2013-01-18 03:00:00,26.2,36.5,30.12,SE,130,0.0,5.0,51,0.00,,,0.00,meteohub,2013-01-18 08:00:00,
2013-01-18 03:05:00,26.1,36.3,30.12,NNE,30,0.0,3.0,50,0.00,,,0.00,meteohub,2013-01-18 08:05:00,
2013-01-18 03:10:00,26.1,36.3,30.11,NNE,30,0.0,5.0,50,0.00,,,0.00,meteohub,2013-01-18 08:10:00,
2013-01-18 03:15:00,25.9,36.3,30.10,NNE,30,0.0,5.0,51,0.00,,,0.00,meteohub,2013-01-18 08:15:00,
2013-01-18 03:20:00,25.7,36.3,30.09,WSW,258,1.0,2.0,51,0.00,,,0.00,meteohub,2013-01-18 08:20:00,
2013-01-18 03:25:00,25.5,36.3,30.09,NW,318,0.0,2.0,51,0.00,,,0.00,meteohub,2013-01-18 08:25:00,
2013-01-18 03:30:00,25.3,36.3,30.10,North,5,1.0,3.0,49,0.00,,,0.00,meteohub,2013-01-18 08:30:00,
2013-01-18 03:35:00,25.3,36.1,30.09,SSE,162,0.0,3.0,49,0.00,,,0.00,meteohub,2013-01-18 08:35:00,
2013-01-18 03:40:00,25.2,36.1,30.10,ESE,120,1.0,5.0,49,0.00,,,0.00,meteohub,2013-01-18 08:40:00,
2013-01-18 03:45:00,25.0,36.3,30.09,NNE,32,1.0,8.0,47,0.00,,,0.00,meteohub,2013-01-18 08:45:00,
2013-01-18 03:50:00,24.8,36.5,30.11,ENE,71,2.0,8.0,48,0.00,,,0.00,meteohub,2013-01-18 08:50:00,
2013-01-18 03:55:00,24.6,36.5,30.12,NW,305,0.0,8.0,47,0.00,,,0.00,meteohub,2013-01-18 08:55:00,
2013-01-18 04:00:00,24.4,36.5,30.12,NE,38,0.0,6.0,47,0.00,,,0.00,meteohub,2013-01-18 09:00:00,
2013-01-18 04:05:00,24.4,36.5,30.12,North,355,0.0,3.0,47,0.00,,,0.00,meteohub,2013-01-18 09:05:00,
2013-01-18 04:10:00,24.3,36.5,30.10,SE,142,0.0,6.0,47,0.00,,,0.00,meteohub,2013-01-18 09:10:00,
2013-01-18 04:15:00,23.9,36.5,30.12,SE,132,1.0,6.0,47,0.00,,,0.00,meteohub,2013-01-18 09:15:00,
2013-01-18 04:20:00,23.7,36.3,30.12,East,88,1.0,6.0,49,0.00,,,0.00,meteohub,2013-01-18 09:20:00,
2013-01-18 04:25:00,23.5,36.3,30.12,East,95,0.0,3.0,51,0.00,,,0.00,meteohub,2013-01-18 09:25:00,
2013-01-18 04:31:00,23.4,36.1,30.13,ESE,121,2.0,4.0,53,0.00,,,0.00,meteohub,2013-01-18 09:31:00,
2013-01-18 04:36:00,22.8,36.1,30.13,ESE,123,2.0,7.0,52,0.00,,,0.00,meteohub,2013-01-18 09:36:00,
2013-01-18 04:41:00,22.6,36.1,30.14,SSE,152,0.0,7.0,53,0.00,,,0.00,meteohub,2013-01-18 09:41:00,
2013-01-18 04:46:00,22.5,36.3,30.14,ESE,103,1.0,7.0,55,0.00,,,0.00,meteohub,2013-01-18 09:46:00,
2013-01-18 04:51:00,22.3,36.3,30.13,ESE,115,1.0,5.0,55,0.00,,,0.00,meteohub,2013-01-18 09:51:00,
2013-01-18 04:56:00,21.9,36.3,30.14,East,101,0.0,4.0,54,0.00,,,0.00,meteohub,2013-01-18 09:56:00,
2013-01-18 05:01:00,21.7,36.3,30.15,SSE,168,1.0,6.0,54,0.00,,,0.00,meteohub,2013-01-18 10:01:00,
2013-01-18 05:06:00,21.6,36.3,30.16,NNE,23,0.0,6.0,55,0.00,,,0.00,meteohub,2013-01-18 10:06:00,
2013-01-18 05:11:00,21.4,36.1,30.17,NNE,32,0.0,6.0,55,0.00,,,0.00,meteohub,2013-01-18 10:11:00,
2013-01-18 05:16:00,20.8,36.1,30.17,NE,42,0.0,5.0,55,0.00,,,0.00,meteohub,2013-01-18 10:16:00,
2013-01-18 05:21:00,20.7,36.1,30.17,South,170,0.0,2.0,55,0.00,,,0.00,meteohub,2013-01-18 10:21:00,
2013-01-18 05:26:00,20.5,36.1,30.17,ESE,122,0.0,4.0,56,0.00,,,0.00,meteohub,2013-01-18 10:26:00,
2013-01-18 05:31:00,19.9,36.1,30.16,East,94,0.0,4.0,54,0.00,,,0.00,meteohub,2013-01-18 10:31:00,
2013-01-18 05:36:00,19.8,36.1,30.17,East,94,0.0,4.0,55,0.00,,,0.00,meteohub,2013-01-18 10:36:00,
2013-01-18 05:41:00,19.8,36.1,30.17,South,173,1.0,2.0,56,0.00,,,0.00,meteohub,2013-01-18 10:41:00,
2013-01-18 05:46:00,19.4,36.1,30.18,ENE,74,1.0,5.0,55,0.00,,,0.00,meteohub,2013-01-18 10:46:00,
2013-01-18 05:51:00,19.2,36.3,30.19,SE,134,0.0,5.0,55,0.00,,,0.00,meteohub,2013-01-18 10:51:00,
2013-01-18 05:56:00,19.0,36.3,30.19,ESE,107,2.0,5.0,56,0.00,,,0.00,meteohub,2013-01-18 10:56:00,
2013-01-18 06:01:00,18.9,36.3,30.20,ENE,67,0.0,4.0,56,0.00,,,0.00,meteohub,2013-01-18 11:01:00,
2013-01-18 06:06:00,18.7,36.3,30.20,ENE,67,0.0,4.0,56,0.00,,,0.00,meteohub,2013-01-18 11:06:00,
2013-01-18 06:11:00,18.3,36.3,30.21,ENE,67,0.0,2.0,56,0.00,,,0.00,meteohub,2013-01-18 11:11:00,
2013-01-18 06:16:00,18.1,36.1,30.22,ESE,115,0.0,1.0,56,0.00,,,0.00,meteohub,2013-01-18 11:16:00,
2013-01-18 06:21:00,18.0,36.1,30.22,ESE,115,0.0,2.0,56,0.00,,,0.00,meteohub,2013-01-18 11:21:00,
2013-01-18 06:26:00,17.8,36.1,30.22,ESE,115,0.0,2.0,56,0.00,,,0.00,meteohub,2013-01-18 11:26:00,
2013-01-18 06:31:00,17.6,36.1,30.23,ESE,107,0.0,2.0,56,0.00,,,0.00,meteohub,2013-01-18 11:31:00,
2013-01-18 06:36:00,17.4,36.0,30.23,ESE,107,0.0,2.0,56,0.00,,,0.00,meteohub,2013-01-18 11:36:00,
2013-01-18 06:41:00,17.4,36.1,30.24,ESE,107,0.0,2.0,58,0.00,,,0.00,meteohub,2013-01-18 11:41:00,
2013-01-18 06:46:00,17.2,36.1,30.24,ESE,107,0.0,2.0,58,0.00,,,0.00,meteohub,2013-01-18 11:46:00,
2013-01-18 06:51:00,17.1,36.3,30.24,ESE,106,0.0,1.0,59,0.00,,,0.00,meteohub,2013-01-18 11:51:00,
2013-01-18 06:56:00,16.9,36.1,30.25,ESE,107,0.0,1.0,59,0.00,,,0.00,meteohub,2013-01-18 11:56:00,
2013-01-18 07:01:00,16.7,36.1,30.25,ESE,106,0.0,1.0,60,0.00,,,0.00,meteohub,2013-01-18 12:01:00,
2013-01-18 07:06:00,16.5,36.1,30.25,ESE,106,0.0,0.0,61,0.00,,,0.00,meteohub,2013-01-18 12:06:00,
2013-01-18 07:11:00,16.3,36.1,30.25,ESE,106,0.0,0.0,62,0.00,,,0.00,meteohub,2013-01-18 12:11:00,
2013-01-18 07:16:00,16.2,36.1,30.26,ESE,107,0.0,0.0,62,0.00,,,0.00,meteohub,2013-01-18 12:16:00,
2013-01-18 07:21:00,16.2,36.1,30.26,ESE,107,0.0,0.0,62,0.00,,,0.00,meteohub,2013-01-18 12:21:00,
2013-01-18 07:26:00,16.0,36.1,30.27,ESE,106,0.0,0.0,63,0.00,,,0.00,meteohub,2013-01-18 12:26:00,
2013-01-18 07:31:00,15.8,35.1,30.27,ESE,107,0.0,0.0,64,0.00,,,0.00,meteohub,2013-01-18 12:31:00,
2013-01-18 07:36:00,15.6,36.1,30.28,ESE,107,0.0,0.0,66,0.00,,,0.00,meteohub,2013-01-18 12:36:00,
2013-01-18 07:41:00,15.4,36.1,30.28,ESE,107,0.0,0.0,66,0.00,,,0.00,meteohub,2013-01-18 12:41:00,
2013-01-18 07:46:00,15.4,36.3,30.29,ESE,107,0.0,0.0,66,0.00,,,0.00,meteohub,2013-01-18 12:46:00,
2013-01-18 07:51:00,15.3,36.3,30.29,ESE,107,0.0,0.0,66,0.00,,,0.00,meteohub,2013-01-18 12:51:00,
2013-01-18 07:56:00,15.3,36.3,30.29,ESE,106,0.0,0.0,67,0.00,,,0.00,meteohub,2013-01-18 12:56:00,
2013-01-18 08:01:00,15.4,36.3,30.29,ESE,107,0.0,0.0,68,0.00,,,0.00,meteohub,2013-01-18 13:01:00,
2013-01-18 08:06:00,15.6,36.3,30.30,ESE,107,0.0,1.0,67,0.00,,,0.00,meteohub,2013-01-18 13:06:00,
2013-01-18 08:11:00,15.8,36.3,30.30,ENE,65,0.0,1.0,67,0.00,,,0.00,meteohub,2013-01-18 13:11:00,
2013-01-18 08:16:00,16.2,36.3,30.31,ENE,65,0.0,2.0,64,0.00,,,0.00,meteohub,2013-01-18 13:16:00,
2013-01-18 08:21:00,16.5,36.3,30.31,ESE,107,2.0,2.0,62,0.00,,,0.00,meteohub,2013-01-18 13:21:00,
2013-01-18 08:26:00,16.9,36.3,30.31,North,0,0.0,3.0,60,0.00,,,0.00,meteohub,2013-01-18 13:26:00,
2013-01-18 08:31:00,17.1,35.1,30.32,NE,39,0.0,3.0,59,0.00,,,0.00,meteohub,2013-01-18 13:31:00,
2013-01-18 08:36:00,17.4,35.1,30.31,SE,134,0.0,3.0,59,0.00,,,0.00,meteohub,2013-01-18 13:36:00,
2013-01-18 08:41:00,17.6,35.1,30.32,NNW,341,0.0,4.0,57,0.00,,,0.00,meteohub,2013-01-18 13:41:00,
2013-01-18 08:46:00,17.8,36.1,30.32,WNW,291,2.0,4.0,55,0.00,,,0.00,meteohub,2013-01-18 13:46:00,
2013-01-18 08:52:00,17.8,36.1,30.33,NW,326,0.0,5.0,55,0.00,,,0.00,meteohub,2013-01-18 13:52:00,
2013-01-18 08:57:00,18.0,36.1,30.33,NW,321,2.0,5.0,54,0.00,,,0.00,meteohub,2013-01-18 13:57:00,
2013-01-18 09:02:00,18.0,35.1,30.33,NW,325,0.0,7.0,53,0.00,,,0.00,meteohub,2013-01-18 14:02:00,
2013-01-18 09:07:00,18.0,35.1,30.33,WNW,295,0.0,7.0,52,0.00,,,0.00,meteohub,2013-01-18 14:07:00,
2013-01-18 09:12:00,18.1,35.1,30.34,NNW,333,1.0,7.0,51,0.00,,,0.00,meteohub,2013-01-18 14:12:00,
2013-01-18 09:17:00,18.3,35.1,30.34,NNW,340,4.0,7.0,50,0.00,,,0.00,meteohub,2013-01-18 14:17:00,
2013-01-18 09:22:00,18.3,36.1,30.35,NNW,348,2.0,7.0,49,0.00,,,0.00,meteohub,2013-01-18 14:22:00,
2013-01-18 09:27:00,18.3,36.1,30.35,NNW,333,0.0,6.0,48,0.00,,,0.00,meteohub,2013-01-18 14:27:00,
2013-01-18 09:32:00,18.5,36.3,30.35,NW,310,4.0,6.0,47,0.00,,,0.00,meteohub,2013-01-18 14:32:00,
2013-01-18 09:37:00,18.5,36.3,30.35,NNW,336,2.0,7.0,47,0.00,,,0.00,meteohub,2013-01-18 14:37:00,
2013-01-18 09:42:00,18.7,36.3,30.35,WNW,300,1.0,7.0,47,0.00,,,0.00,meteohub,2013-01-18 14:42:00,
2013-01-18 09:47:00,18.7,35.2,30.35,NE,34,0.0,7.0,48,0.00,,,0.00,meteohub,2013-01-18 14:47:00,
2013-01-18 09:52:00,18.9,35.1,30.35,East,98,0.0,5.0,47,0.00,,,0.00,meteohub,2013-01-18 14:52:00,
2013-01-18 09:57:00,18.9,35.1,30.35,SSW,196,0.0,3.0,48,0.00,,,0.00,meteohub,2013-01-18 14:57:00,
2013-01-18 10:02:00,19.0,36.3,30.35,NW,319,6.0,6.0,46,0.00,,,0.00,meteohub,2013-01-18 15:02:00,
2013-01-18 10:07:00,19.2,36.3,30.35,NNW,330,5.0,7.0,47,0.00,,,0.00,meteohub,2013-01-18 15:07:00,
2013-01-18 10:12:00,19.4,35.2,30.36,SSW,211,1.0,7.0,46,0.00,,,0.00,meteohub,2013-01-18 15:12:00,
2013-01-18 10:17:00,19.6,35.2,30.36,NW,318,5.0,7.0,47,0.00,,,0.00,meteohub,2013-01-18 15:17:00,
2013-01-18 10:22:00,19.8,35.2,30.36,NW,325,0.0,7.0,46,0.00,,,0.00,meteohub,2013-01-18 15:22:00,
2013-01-18 10:27:00,19.8,35.2,30.36,NNW,327,1.0,7.0,46,0.00,,,0.00,meteohub,2013-01-18 15:27:00,
2013-01-18 10:32:00,19.8,35.1,30.36,SE,142,0.0,6.0,45,0.00,,,0.00,meteohub,2013-01-18 15:32:00,
2013-01-18 10:37:00,19.9,35.1,30.36,NNW,331,0.0,5.0,45,0.00,,,0.00,meteohub,2013-01-18 15:37:00,
2013-01-18 10:42:00,19.9,35.1,30.36,NW,320,0.0,6.0,45,0.00,,,0.00,meteohub,2013-01-18 15:42:00,
2013-01-18 10:47:00,20.5,35.2,30.36,NNW,336,1.0,6.0,46,0.00,,,0.00,meteohub,2013-01-18 15:47:00,
2013-01-18 10:52:00,20.7,35.2,30.36,NW,318,1.0,7.0,46,0.00,,,0.00,meteohub,2013-01-18 15:52:00,
2013-01-18 10:57:00,20.8,35.2,30.36,North,355,0.0,7.0,45,0.00,,,0.00,meteohub,2013-01-18 15:57:00,
2013-01-18 11:02:00,21.0,35.2,30.36,SE,137,4.0,7.0,46,0.00,,,0.00,meteohub,2013-01-18 16:02:00,
2013-01-18 11:07:00,21.2,35.2,30.36,WNW,295,0.0,5.0,43,0.00,,,0.00,meteohub,2013-01-18 16:07:00,
2013-01-18 11:12:00,21.2,35.2,30.36,NNW,331,2.0,10.0,43,0.00,,,0.00,meteohub,2013-01-18 16:12:00,
2013-01-18 11:17:00,21.6,35.2,30.35,NNW,337,0.0,10.0,44,0.00,,,0.00,meteohub,2013-01-18 16:17:00,
2013-01-18 11:22:00,21.7,35.2,30.36,NNW,333,0.0,10.0,44,0.00,,,0.00,meteohub,2013-01-18 16:22:00,
2013-01-18 11:27:00,21.9,35.2,30.36,NNW,331,3.0,8.0,45,0.00,,,0.00,meteohub,2013-01-18 16:27:00,
2013-01-18 11:32:00,21.9,35.2,30.36,East,83,0.0,10.0,44,0.00,,,0.00,meteohub,2013-01-18 16:32:00,
2013-01-18 11:37:00,21.9,35.2,30.36,SE,144,0.0,10.0,44,0.00,,,0.00,meteohub,2013-01-18 16:37:00,
2013-01-18 11:42:00,22.1,35.6,30.36,NNW,341,0.0,10.0,46,0.00,,,0.00,meteohub,2013-01-18 16:42:00,
2013-01-18 11:47:00,22.1,35.6,30.35,NNW,332,0.0,7.0,46,0.00,,,0.00,meteohub,2013-01-18 16:47:00,
2013-01-18 11:52:00,22.3,35.6,30.35,NNW,334,2.0,8.0,43,0.00,,,0.00,meteohub,2013-01-18 16:52:00,
2013-01-18 11:57:00,22.5,35.6,30.35,NNW,348,5.0,10.0,43,0.00,,,0.00,meteohub,2013-01-18 16:57:00,
2013-01-18 12:02:00,22.5,35.6,30.35,North,355,4.0,10.0,43,0.00,,,0.00,meteohub,2013-01-18 17:02:00,
2013-01-18 12:07:00,22.5,35.6,30.35,NNW,344,1.0,10.0,44,0.00,,,0.00,meteohub,2013-01-18 17:07:00,
2013-01-18 12:12:00,22.5,35.6,30.35,West,259,5.0,10.0,43,0.00,,,0.00,meteohub,2013-01-18 17:12:00,
2013-01-18 12:17:00,22.5,35.6,30.35,NNW,332,4.0,10.0,42,0.00,,,0.00,meteohub,2013-01-18 17:17:00,
2013-01-18 12:22:00,22.3,35.6,30.35,NE,37,1.0,8.0,42,0.00,,,0.00,meteohub,2013-01-18 17:22:00,
2013-01-18 12:27:00,22.5,35.6,30.35,NNW,340,0.0,9.0,42,0.00,,,0.00,meteohub,2013-01-18 17:27:00,
2013-01-18 12:32:00,22.8,35.6,30.35,NW,324,2.0,9.0,44,0.00,,,0.00,meteohub,2013-01-18 17:32:00,
2013-01-18 12:37:00,23.0,35.6,30.35,NNW,345,6.0,9.0,41,0.00,,,0.00,meteohub,2013-01-18 17:37:00,
2013-01-18 12:42:00,22.8,35.6,30.35,WNW,291,4.0,9.0,42,0.00,,,0.00,meteohub,2013-01-18 17:42:00,
2013-01-18 12:47:00,23.0,35.6,30.35,WNW,296,8.0,8.0,41,0.00,,,0.00,meteohub,2013-01-18 17:47:00,
2013-01-18 12:52:00,23.2,35.6,30.35,NNE,13,1.0,8.0,40,0.00,,,0.00,meteohub,2013-01-18 17:52:00,
2013-01-18 12:58:00,23.2,35.6,30.35,NNW,340,5.0,11.0,40,0.00,,,0.00,meteohub,2013-01-18 17:58:00,
2013-01-18 13:03:00,23.2,35.6,30.35,North,350,1.0,11.0,41,0.00,,,0.00,meteohub,2013-01-18 18:03:00,
2013-01-18 13:08:00,23.5,35.6,30.36,West,271,4.0,11.0,41,0.00,,,0.00,meteohub,2013-01-18 18:08:00,
2013-01-18 13:13:00,23.5,35.6,30.35,NNW,344,2.0,11.0,41,0.00,,,0.00,meteohub,2013-01-18 18:13:00,
2013-01-18 13:18:00,23.5,35.6,30.36,South,186,0.0,9.0,40,0.00,,,0.00,meteohub,2013-01-18 18:18:00,
2013-01-18 13:23:00,23.7,35.6,30.36,NNW,336,0.0,9.0,41,0.00,,,0.00,meteohub,2013-01-18 18:23:00,
2013-01-18 13:28:00,24.1,34.5,30.36,South,185,2.0,7.0,41,0.00,,,0.00,meteohub,2013-01-18 18:28:00,
2013-01-18 13:33:00,24.3,34.5,30.36,NW,326,0.0,10.0,40,0.00,,,0.00,meteohub,2013-01-18 18:33:00,
2013-01-18 13:38:00,24.4,34.5,30.36,West,269,5.0,10.0,40,0.00,,,0.00,meteohub,2013-01-18 18:38:00,
2013-01-18 13:43:00,24.4,34.3,30.36,West,277,6.0,10.0,39,0.00,,,0.00,meteohub,2013-01-18 18:43:00,
2013-01-18 13:48:00,24.6,34.3,30.36,NW,318,2.0,10.0,39,0.00,,,0.00,meteohub,2013-01-18 18:48:00,
2013-01-18 13:53:00,24.6,34.3,30.37,NW,323,4.0,10.0,40,0.00,,,0.00,meteohub,2013-01-18 18:53:00,
2013-01-18 13:58:00,24.6,34.3,30.37,NNW,342,2.0,9.0,38,0.00,,,0.00,meteohub,2013-01-18 18:58:00,
2013-01-18 14:03:00,24.6,34.3,30.36,SW,232,0.0,13.0,39,0.00,,,0.00,meteohub,2013-01-18 19:03:00,
2013-01-18 14:08:00,24.6,34.3,30.36,NW,321,2.0,14.0,39,0.00,,,0.00,meteohub,2013-01-18 19:08:00,
2013-01-18 14:13:00,24.6,34.3,30.36,NW,304,5.0,14.0,40,0.00,,,0.00,meteohub,2013-01-18 19:13:00,
2013-01-18 14:18:00,25.0,34.3,30.37,North,355,1.0,7.0,38,0.00,,,0.00,meteohub,2013-01-18 19:18:00,
2013-01-18 14:23:00,25.0,34.3,30.37,NNW,338,0.0,7.0,39,0.00,,,0.00,meteohub,2013-01-18 19:23:00,
2013-01-18 14:28:00,25.0,34.3,30.38,ESE,112,1.0,7.0,39,0.00,,,0.00,meteohub,2013-01-18 19:28:00,
2013-01-18 14:33:00,25.2,34.5,30.38,WNW,284,0.0,7.0,39,0.00,,,0.00,meteohub,2013-01-18 19:33:00,
2013-01-18 14:38:00,25.2,35.8,30.38,North,349,4.0,6.0,38,0.00,,,0.00,meteohub,2013-01-18 19:38:00,
2013-01-18 14:43:00,25.2,34.9,30.38,NW,309,5.0,8.0,41,0.00,,,0.00,meteohub,2013-01-18 19:43:00,
2013-01-18 14:48:00,25.0,35.1,30.38,NNW,346,7.0,8.0,41,0.00,,,0.00,meteohub,2013-01-18 19:48:00,
2013-01-18 14:53:00,25.0,35.2,30.38,NNW,331,4.0,8.0,41,0.00,,,0.00,meteohub,2013-01-18 19:53:00,
2013-01-18 14:58:00,25.0,35.2,30.38,WNW,292,0.0,8.0,40,0.00,,,0.00,meteohub,2013-01-18 19:58:00,
2013-01-18 15:03:00,25.0,35.4,30.38,NW,319,6.0,7.0,42,0.00,,,0.00,meteohub,2013-01-18 20:03:00,
2013-01-18 15:08:00,24.6,36.7,30.38,NW,323,7.0,7.0,40,0.00,,,0.00,meteohub,2013-01-18 20:08:00,
2013-01-18 15:13:00,24.4,37.0,30.39,NW,315,6.0,8.0,40,0.00,,,0.00,meteohub,2013-01-18 20:13:00,
2013-01-18 15:18:00,24.3,36.0,30.39,NW,325,8.0,8.0,40,0.00,,,0.00,meteohub,2013-01-18 20:18:00,
2013-01-18 15:23:00,24.1,36.0,30.39,WNW,299,4.0,9.0,41,0.00,,,0.00,meteohub,2013-01-18 20:23:00,
2013-01-18 15:28:00,24.1,36.0,30.38,West,265,1.0,9.0,41,0.00,,,0.00,meteohub,2013-01-18 20:28:00,
2013-01-18 15:33:00,23.9,36.0,30.39,North,355,4.0,9.0,42,0.00,,,0.00,meteohub,2013-01-18 20:33:00,
2013-01-18 15:38:00,23.7,36.1,30.38,WNW,300,5.0,10.0,40,0.00,,,0.00,meteohub,2013-01-18 20:38:00,
2013-01-18 15:43:00,23.7,36.3,30.39,WNW,287,4.0,11.0,41,0.00,,,0.00,meteohub,2013-01-18 20:43:00,
2013-01-18 15:48:00,23.5,36.3,30.39,NW,319,4.0,11.0,40,0.00,,,0.00,meteohub,2013-01-18 20:48:00,
2013-01-18 15:53:00,23.5,36.3,30.39,North,355,0.0,12.0,41,0.00,,,0.00,meteohub,2013-01-18 20:53:00,
2013-01-18 15:59:00,23.5,36.3,30.39,NW,325,6.0,12.0,42,0.00,,,0.00,meteohub,2013-01-18 20:59:00,
2013-01-18 16:04:00,23.4,36.3,30.39,NW,321,0.0,12.0,42,0.00,,,0.00,meteohub,2013-01-18 21:04:00,
2013-01-18 16:09:00,23.4,36.5,30.39,NW,321,2.0,6.0,44,0.00,,,0.00,meteohub,2013-01-18 21:09:00,
2013-01-18 16:14:00,23.4,36.7,30.39,West,276,0.0,6.0,43,0.00,,,0.00,meteohub,2013-01-18 21:14:00,
2013-01-18 16:19:00,23.4,36.7,30.39,West,276,0.0,4.0,45,0.00,,,0.00,meteohub,2013-01-18 21:19:00,
2013-01-18 16:24:00,23.2,36.7,30.39,West,276,0.0,4.0,45,0.00,,,0.00,meteohub,2013-01-18 21:24:00,
2013-01-18 16:29:00,23.0,36.7,30.40,West,277,0.0,3.0,43,0.00,,,0.00,meteohub,2013-01-18 21:29:00,
2013-01-18 16:34:00,22.8,36.7,30.40,West,276,0.0,2.0,43,0.00,,,0.00,meteohub,2013-01-18 21:34:00,
2013-01-18 16:39:00,22.6,37.0,30.40,West,277,0.0,2.0,44,0.00,,,0.00,meteohub,2013-01-18 21:39:00,
2013-01-18 16:44:00,22.6,37.0,30.40,West,277,0.0,2.0,45,0.00,,,0.00,meteohub,2013-01-18 21:44:00,
2013-01-18 16:49:00,22.5,37.0,30.40,NW,315,3.0,3.0,44,0.00,,,0.00,meteohub,2013-01-18 21:49:00,
2013-01-18 16:54:00,22.3,37.0,30.40,WNW,284,0.0,5.0,44,0.00,,,0.00,meteohub,2013-01-18 21:54:00,
2013-01-18 16:59:00,22.3,35.8,30.41,WNW,288,3.0,6.0,45,0.00,,,0.00,meteohub,2013-01-18 21:59:00,
2013-01-18 17:04:00,22.1,37.0,30.41,WNW,300,0.0,6.0,45,0.00,,,0.00,meteohub,2013-01-18 22:04:00,
2013-01-18 17:09:00,21.9,37.2,30.41,WNW,298,0.0,6.0,46,0.00,,,0.00,meteohub,2013-01-18 22:09:00,
2013-01-18 17:14:00,21.7,37.2,30.41,WNW,303,0.0,6.0,46,0.00,,,0.00,meteohub,2013-01-18 22:14:00,
2013-01-18 17:19:00,21.6,37.2,30.42,WNW,303,1.0,5.0,47,0.00,,,0.00,meteohub,2013-01-18 22:19:00,
2013-01-18 17:24:00,21.6,36.1,30.42,WNW,303,1.0,5.0,46,0.00,,,0.00,meteohub,2013-01-18 22:24:00,
2013-01-18 17:29:00,21.6,36.0,30.42,WNW,295,0.0,4.0,46,0.00,,,0.00,meteohub,2013-01-18 22:29:00,
2013-01-18 17:34:00,21.6,37.0,30.42,WNW,295,0.0,5.0,47,0.00,,,0.00,meteohub,2013-01-18 22:34:00,
2013-01-18 17:39:00,21.4,37.2,30.43,WNW,292,0.0,5.0,48,0.00,,,0.00,meteohub,2013-01-18 22:39:00,
2013-01-18 17:44:00,21.0,37.2,30.43,WNW,292,0.0,5.0,49,0.00,,,0.00,meteohub,2013-01-18 22:44:00,
2013-01-18 17:49:00,20.8,37.2,30.43,WNW,292,0.0,2.0,48,0.00,,,0.00,meteohub,2013-01-18 22:49:00,
2013-01-18 17:54:00,20.7,36.1,30.44,WNW,292,0.0,0.0,50,0.00,,,0.00,meteohub,2013-01-18 22:54:00,
2013-01-18 17:59:00,20.5,36.1,30.43,WNW,292,1.0,0.0,51,0.00,,,0.00,meteohub,2013-01-18 22:59:00,
2013-01-18 18:04:00,20.3,36.0,30.43,WNW,292,0.0,1.0,51,0.00,,,0.00,meteohub,2013-01-18 23:04:00,
2013-01-18 18:09:00,20.3,37.2,30.43,WNW,292,0.0,2.0,52,0.00,,,0.00,meteohub,2013-01-18 23:09:00,
2013-01-18 18:14:00,20.1,37.4,30.43,WNW,292,0.0,2.0,53,0.00,,,0.00,meteohub,2013-01-18 23:14:00,
2013-01-18 18:19:00,19.8,36.3,30.43,WNW,292,0.0,2.0,53,0.00,,,0.00,meteohub,2013-01-18 23:19:00,
2013-01-18 18:24:00,19.8,36.1,30.44,WNW,292,0.0,0.0,55,0.00,,,0.00,meteohub,2013-01-18 23:24:00,
2013-01-18 18:29:00,19.2,36.1,30.44,WNW,292,0.0,0.0,56,0.00,,,0.00,meteohub,2013-01-18 23:29:00,
2013-01-18 18:34:00,18.9,37.2,30.44,WNW,292,0.0,0.0,56,0.00,,,0.00,meteohub,2013-01-18 23:34:00,
2013-01-18 18:39:00,18.7,37.4,30.45,WNW,292,0.0,1.0,58,0.00,,,0.00,meteohub,2013-01-18 23:39:00,
2013-01-18 18:44:00,18.3,37.6,30.44,WNW,292,0.0,1.0,59,0.00,,,0.00,meteohub,2013-01-18 23:44:00,
2013-01-18 18:49:00,18.0,36.5,30.44,WNW,292,0.0,1.0,59,0.00,,,0.00,meteohub,2013-01-18 23:49:00,
2013-01-18 18:54:00,17.6,36.3,30.44,WNW,292,0.0,0.0,61,0.00,,,0.00,meteohub,2013-01-18 23:54:00,
2013-01-18 18:59:00,17.2,36.1,30.44,WNW,292,0.0,0.0,62,0.00,,,0.00,meteohub,2013-01-18 23:59:00,
2013-01-18 19:04:00,17.2,36.1,30.44,WNW,292,0.0,0.0,62,0.00,,,0.00,meteohub,2013-01-19 00:04:00,
2013-01-18 19:09:00,17.2,36.1,30.45,WNW,292,0.0,1.0,62,0.00,,,0.00,meteohub,2013-01-19 00:09:00,
2013-01-18 19:14:00,17.2,36.3,30.44,WNW,292,0.0,1.0,63,0.00,,,0.00,meteohub,2013-01-19 00:14:00,
2013-01-18 19:19:00,17.6,36.5,30.44,WNW,292,0.0,1.0,62,0.00,,,0.00,meteohub,2013-01-19 00:19:00,
2013-01-18 19:24:00,18.0,36.7,30.44,West,261,0.0,0.0,62,0.00,,,0.00,meteohub,2013-01-19 00:24:00,
2013-01-18 19:29:00,18.3,36.5,30.44,West,262,0.0,1.0,62,0.00,,,0.00,meteohub,2013-01-19 00:29:00,
2013-01-18 19:34:00,18.9,36.3,30.44,West,262,0.0,4.0,61,0.00,,,0.00,meteohub,2013-01-19 00:34:00,
2013-01-18 19:40:00,19.2,36.3,30.44,West,262,0.0,4.0,59,0.00,,,0.00,meteohub,2013-01-19 00:40:00,
2013-01-18 19:45:00,19.6,36.5,30.44,West,261,0.0,1.0,58,0.00,,,0.00,meteohub,2013-01-19 00:45:00,
2013-01-18 19:50:00,19.8,36.7,30.44,West,262,0.0,1.0,58,0.00,,,0.00,meteohub,2013-01-19 00:50:00,
2013-01-18 19:55:00,19.8,36.7,30.44,West,261,0.0,1.0,57,0.00,,,0.00,meteohub,2013-01-19 00:55:00,
2013-01-18 20:00:00,19.8,36.7,30.44,West,262,0.0,1.0,56,0.00,,,0.00,meteohub,2013-01-19 01:00:00,
2013-01-18 20:05:00,19.8,36.7,30.44,West,261,0.0,1.0,55,0.00,,,0.00,meteohub,2013-01-19 01:05:00,
2013-01-18 20:10:00,19.8,36.7,30.44,West,262,0.0,1.0,56,0.00,,,0.00,meteohub,2013-01-19 01:10:00,
2013-01-18 20:15:00,19.8,36.7,30.45,West,261,0.0,2.0,56,0.00,,,0.00,meteohub,2013-01-19 01:15:00,
2013-01-18 20:20:00,19.8,36.7,30.45,West,262,0.0,2.0,57,0.00,,,0.00,meteohub,2013-01-19 01:20:00,
2013-01-18 20:25:00,19.6,36.9,30.45,West,262,0.0,2.0,57,0.00,,,0.00,meteohub,2013-01-19 01:25:00,
2013-01-18 20:30:00,19.2,37.0,30.45,West,261,0.0,0.0,57,0.00,,,0.00,meteohub,2013-01-19 01:30:00,
2013-01-18 20:35:00,19.0,36.9,30.44,West,262,0.0,0.0,57,0.00,,,0.00,meteohub,2013-01-19 01:35:00,
2013-01-18 20:40:00,19.0,36.9,30.44,WSW,257,1.0,0.0,58,0.00,,,0.00,meteohub,2013-01-19 01:40:00,
2013-01-18 20:45:00,18.9,36.7,30.43,WSW,257,0.0,1.0,58,0.00,,,0.00,meteohub,2013-01-19 01:45:00,
2013-01-18 20:50:00,18.9,36.7,30.43,SW,217,0.0,2.0,58,0.00,,,0.00,meteohub,2013-01-19 01:50:00,
2013-01-18 20:55:00,18.9,36.7,30.44,SW,217,0.0,2.0,58,0.00,,,0.00,meteohub,2013-01-19 01:55:00,
2013-01-18 21:00:00,18.9,36.7,30.44,SW,217,0.0,2.0,59,0.00,,,0.00,meteohub,2013-01-19 02:00:00,
2013-01-18 21:05:00,18.9,36.5,30.44,SW,217,0.0,1.0,59,0.00,,,0.00,meteohub,2013-01-19 02:05:00,
2013-01-18 21:10:00,18.9,36.3,30.44,SW,217,1.0,0.0,58,0.00,,,0.00,meteohub,2013-01-19 02:10:00,
2013-01-18 21:15:00,18.7,36.3,30.44,SW,217,0.0,1.0,60,0.00,,,0.00,meteohub,2013-01-19 02:15:00,
2013-01-18 21:20:00,17.1,36.1,30.44,SSW,207,0.0,1.0,60,0.00,,,0.00,meteohub,2013-01-19 02:20:00,
2013-01-18 21:25:00,17.1,36.1,30.43,SSW,195,0.0,1.0,62,0.00,,,0.00,meteohub,2013-01-19 02:25:00,
2013-01-18 21:30:00,16.9,36.0,30.44,SSW,195,0.0,0.0,61,0.00,,,0.00,meteohub,2013-01-19 02:30:00,
2013-01-18 21:35:00,16.9,35.8,30.43,SSW,196,0.0,0.0,61,0.00,,,0.00,meteohub,2013-01-19 02:35:00,
2013-01-18 21:40:00,16.9,35.8,30.43,SSW,196,0.0,0.0,63,0.00,,,0.00,meteohub,2013-01-19 02:40:00,
2013-01-18 21:45:00,16.7,35.8,30.43,SSE,155,0.0,0.0,63,0.00,,,0.00,meteohub,2013-01-19 02:45:00,
2013-01-18 21:50:00,16.7,35.8,30.43,SSE,155,0.0,0.0,62,0.00,,,0.00,meteohub,2013-01-19 02:50:00,
2013-01-18 21:55:00,16.7,35.6,30.44,SSE,155,0.0,0.0,62,0.00,,,0.00,meteohub,2013-01-19 02:55:00,
2013-01-18 22:00:00,16.7,35.4,30.43,SSE,155,0.0,0.0,63,0.00,,,0.00,meteohub,2013-01-19 03:00:00,
2013-01-18 22:05:00,16.5,35.4,30.43,SSE,155,0.0,0.0,63,0.00,,,0.00,meteohub,2013-01-19 03:05:00,
2013-01-18 22:10:00,16.5,35.2,30.43,SSE,155,0.0,0.0,64,0.00,,,0.00,meteohub,2013-01-19 03:10:00,
2013-01-18 22:15:00,16.3,35.2,30.43,SSE,155,0.0,0.0,64,0.00,,,0.00,meteohub,2013-01-19 03:15:00,
2013-01-18 22:20:00,16.3,35.2,30.42,SSE,155,0.0,0.0,64,0.00,,,0.00,meteohub,2013-01-19 03:20:00,
2013-01-18 22:25:00,16.3,35.2,30.42,SSE,155,0.0,0.0,64,0.00,,,0.00,meteohub,2013-01-19 03:25:00,
2013-01-18 22:30:00,16.5,35.1,30.41,SSE,155,0.0,0.0,64,0.00,,,0.00,meteohub,2013-01-19 03:30:00,
2013-01-18 22:35:00,16.5,35.1,30.41,SSW,213,0.0,0.0,63,0.00,,,0.00,meteohub,2013-01-19 03:35:00,
2013-01-18 22:40:00,16.9,34.9,30.41,SSE,167,0.0,0.0,63,0.00,,,0.00,meteohub,2013-01-19 03:40:00,
2013-01-18 22:45:00,17.1,34.7,30.40,SSW,209,0.0,0.0,63,0.00,,,0.00,meteohub,2013-01-19 03:45:00,
2013-01-18 22:50:00,17.2,34.7,30.40,SSW,194,0.0,0.0,63,0.00,,,0.00,meteohub,2013-01-19 03:50:00,
2013-01-18 22:55:00,17.8,34.5,30.40,SSE,167,0.0,0.0,63,0.00,,,0.00,meteohub,2013-01-19 03:55:00,
2013-01-18 23:00:00,18.0,34.5,30.40,South,180,0.0,0.0,63,0.00,,,0.00,meteohub,2013-01-19 04:00:00,
2013-01-18 23:05:00,18.1,34.5,30.40,SSE,157,0.0,0.0,63,0.00,,,0.00,meteohub,2013-01-19 04:05:00,
2013-01-18 23:10:00,18.5,34.5,30.40,SSE,155,0.0,0.0,62,0.00,,,0.00,meteohub,2013-01-19 04:10:00,
2013-01-18 23:15:00,18.7,34.3,30.40,SSE,155,0.0,0.0,62,0.00,,,0.00,meteohub,2013-01-19 04:15:00,
2013-01-18 23:20:00,18.9,34.3,30.39,SSE,155,0.0,0.0,62,0.00,,,0.00,meteohub,2013-01-19 04:20:00,
2013-01-18 23:25:00,18.9,34.3,30.40,SSE,160,0.0,0.0,62,0.00,,,0.00,meteohub,2013-01-19 04:25:00,
2013-01-18 23:31:00,19.0,34.2,30.40,SW,221,0.0,0.0,62,0.00,,,0.00,meteohub,2013-01-19 04:31:00,
2013-01-18 23:36:00,19.0,34.2,30.39,SW,221,0.0,0.0,62,0.00,,,0.00,meteohub,2013-01-19 04:36:00,
2013-01-18 23:41:00,19.2,34.2,30.38,SSW,197,0.0,0.0,62,0.00,,,0.00,meteohub,2013-01-19 04:41:00,
2013-01-18 23:46:00,19.6,34.2,30.38,SSW,207,0.0,0.0,61,0.00,,,0.00,meteohub,2013-01-19 04:46:00,
2013-01-18 23:51:00,19.8,34.0,30.38,South,182,0.0,0.0,61,0.00,,,0.00,meteohub,2013-01-19 04:51:00,
2013-01-18 23:56:00,19.8,34.0,30.38,South,178,0.0,0.0,62,0.00,,,0.00,meteohub,2013-01-19 04:56:00,